Lapse_Rate
3.6 3.7 3.9 4.0 4.1 4.4 5.1 5.5 5.5 5.1 5.8 6.1 6.1 5.9 5.5 5.6 6.0 6.1 6.6 6.9 6.9 7.0 7.7 7.8 7.9 7.7 7.9 7.7 7.8 7.8 7.4 7.2 6.4 5.1 5.0 4.5 4.0 3.2 3.6 4.3 6.1 5.4 4.4 2.6
3.6 3.7 4.0 4.1 4.3 4.8 5.1 5.6 5.3 5.6 6.2 5.8 5.7 5.8 6.1 6.1 6.2 6.3 6.4 6.6 6.5 6.8 6.9 7.6 7.4 7.8 7.8 7.9 8.1 7.6 7.4 7.1 6.7 5.2 5.1 4.7 3.9 3.4 3.4 4.8 3.9 1.4 3.0 2.2
3.6 3.8 4.2 4.4 4.6 5.1 5.5 5.7 5.3 5.3 5.7 5.6 5.8 6.2 6.3 6.1 6.0 6.0 5.8 6.1 7.0 7.0 6.7 6.9 6.9 7.4 7.8 7.9 8.1 7.6 7.5 7.1 6.9 4.9 4.1 3.7 3.0 3.6 4.5 4.7 3.0 1.1 1.1 1.2
3.7 3.9 4.2 4.6 4.9 5.4 5.7 5.8 5.3 5.3 5.4 5.6 5.6 5.7 5.9 6.1 6.2 6.0 6.1 6.2 6.1 5.9 6.0 6.4 6.3 6.5 7.2 7.9 8.0 7.9 7.3 6.2 6.8 5.5 5.2 5.2 3.5 3.0 2.8 3.3 2.8 2.1 1.2 1.6
3.7 3.9 4.2 4.6 5.0 5.5 6.2 5.9 5.6 5.3 5.4 5.6 6.0 6.0 5.7 5.8 6.0 6.2 6.2 6.0 5.8 5.8 5.7 5.7 5.9 5.8 6.1 6.5 7.8 7.9 7.3 6.6 6.5 5.6 5.7 5.6 4.3 3.4 3.2 2.5 2.3 2.0 2.2 2.1
3.7 3.9 4.2 4.6 5.2 5.7 6.3 6.0 5.7 5.5 5.4 5.4 5.7 5.5 5.6 5.7 5.7 5.8 6.0 6.0 6.0 6.2 6.1 5.9 5.8 5.9 6.0 6.1 6.9 7.8 7.7 7.0 6.6 6.7 6.5 6.3 5.1 3.6 3.6 3.0 2.6 2.3 2.1 1.7
3.8 3.9 4.2 4.6 5.1 5.9 6.1 5.9 5.6 5.6 5.5 5.5 5.4 5.5 5.6 5.8 5.9 6.0 6.1 6.1 6.2 6.1 6.2 6.3 6.0 5.8 5.9 6.2 6.7 7.2 7.9 7.9 7.5 7.1 6.9 4.8 4.1 4.1 3.9 3.6 3.3 2.9 2.4 2.3
3.9 4.0 4.3 4.6 5.0 5.6 6.1 6.0 5.9 5.7 5.6 5.4 5.6 5.7 5.6 5.6 5.9 5.9 5.9 6.1 6.0 6.2 6.5 6.2 6.0 5.9 5.8 6.3 6.7 7.1 7.8 8.0 7.6 7.1 5.3 5.0 4.8 4.5 4.3 3.9 3.6 3.4 3.3 3.0
4.0 4.1 4.3 4.6 4.9 5.5 6.0 6.1 6.2 5.8 5.8 5.6 5.6 5.6 5.7 6.0 6.1 5.9 5.8 5.7 6.0 6.2 6.2 5.9 5.9 5.4 5.2 6.1 6.6 6.9 7.3 7.7 7.8 7.3 6.0 5.6 4.8 4.7 4.4 4.5 4.0 3.9 3.8 3.6
4.0 4.1 4.3 4.6 4.9 5.5 6.0 6.0 6.1 6.0 5.8 5.7 5.6 5.7 5.6 5.5 5.5 5.7 5.9 6.1 6.3 6.2 6.2 5.9 5.6 5.5 5.4 5.5 5.4 5.8 6.7 6.8 6.8 6.8 6.0 5.9 5.7 5.4 4.9 4.9 4.4 4.3 4.2 4.0
4.1 4.2 4.3 4.7 4.9 5.4 5.8 6.1 6.2 6.1 5.9 5.8 5.6 5.7 5.6 5.3 5.4 5.4 5.5 5.8 5.7 5.9 5.9 5.5 5.4 5.8 5.6 5.6 5.2 5.2 5.4 5.7 5.7 6.1 5.9 5.1 5.8 5.9 5.7 5.1 4.9 4.8 4.5 4.5
4.2 4.3 4.4 4.6 4.8 5.3 5.7 6.0 6.2 6.2 6.0 5.8 5.6 5.7 5.5 5.4 5.2 5.1 5.1 5.0 5.1 5.5 5.8 5.7 5.7 6.0 5.8 5.7 5.6 5.6 5.6 5.5 5.4 5.4 5.5 5.6 5.6 5.6 5.7 5.9 6.0 5.6 5.2 4.9
4.3 4.4 4.5 4.6 4.8 5.2 5.6 6.0 6.1 6.2 6.1 6.0 5.9 5.6 5.3 5.3 5.2 5.1 5.0 5.0 5.2 5.4 5.8 6.0 6.1 6.1 6.1 6.1 6.0 5.9 5.9 5.9 5.8 5.7 5.7 5.9 5.8 5.7 5.7 5.8 5.9 6.0 6.0 5.7
4.5 4.4 4.5 4.6 4.8 5.1 5.5 6.0 6.2 6.2 6.3 6.4 6.0 5.7 5.5 5.3 5.3 5.0 4.9 4.9 5.2 5.5 5.9 6.2 6.5 6.5 6.3 6.3 6.3 6.4 6.3 6.3 6.2 6.1 6.0 6.0 6.0 6.1 5.9 5.7 5.7 5.7 5.6 5.8
4.7 4.6 4.6 4.6 4.9 5.1 5.4 5.9 6.2 6.1 6.1 6.3 6.2 5.9 5.4 5.2 5.1 4.9 4.8 4.7 5.0 5.5 6.0 6.3 6.6 6.6 6.5 6.5 6.5 6.4 6.2 6.1 6.1 5.9 5.7 5.6 5.5 5.5 5.5 5.5 5.6 5.6 5.6 5.4
4.8 4.7 4.8 4.7 4.8 5.0 5.3 5.8 5.9 6.3 6.4 6.4 6.2 5.8 5.3 5.2 5.0 4.9 4.7 4.7 4.8 5.2 6.0 6.5 6.6 6.8 6.9 6.8 6.7 6.6 6.5 6.1 5.9 5.6 5.5 5.5 5.4 5.3 5.2 5.1 5.1 5.3 5.5 5.6
4.9 4.9 4.9 4.9 4.8 5.0 5.3 5.6 6.2 6.5 6.3 6.3 5.8 5.4 5.4 5.4 5.2 5.2 4.8 4.6 4.8 5.3 6.1 6.5 6.8 7.0 7.1 6.9 6.8 6.8 6.6 6.2 5.9 5.7 5.6 5.4 5.4 5.3 5.3 5.2 5.0 5.1 5.0 5.1
4.9 5.0 5.1 5.1 4.9 4.9 5.3 5.8 6.3 6.3 6.3 6.0 5.7 5.3 5.3 5.3 5.4 5.4 4.8 4.6 4.9 5.3 6.1 6.6 7.0 7.1 7.1 7.1 7.0 6.8 6.6 6.3 6.0 5.9 5.8 5.6 5.4 5.3 5.3 5.3 5.1 4.9 4.9 4.8
4.9 4.9 5.1 5.2 5.0 5.1 5.4 5.7 6.1 6.1 6.0 5.8 5.5 5.2 5.2 5.4 5.4 5.4 4.8 4.5 4.8 5.2 6.1 6.6 6.9 7.1 7.0 7.1 7.2 7.0 6.8 6.5 6.3 5.9 5.9 5.8 5.5 5.2 5.0 4.9 4.9 4.9 4.9 4.8
4.9 4.9 4.9 4.9 4.9 4.9 5.1 5.1 5.5 5.8 6.0 5.8 5.6 5.6 5.5 5.6 5.6 5.3 4.7 4.4 4.8 5.2 6.0 6.2 6.5 6.9 7.1 6.9 6.9 6.9 6.8 6.7 6.6 6.3 6.0 5.8 5.4 5.3 5.0 4.8 4.6 4.6 4.6 4.6
4.8 4.9 4.7 4.7 4.7 4.7 4.7 4.9 5.4 5.8 5.9 5.8 5.7 5.6 5.6 5.6 5.5 5.3 4.8 4.7 4.6 5.2 5.8 6.3 6.4 6.6 6.6 6.5 6.7 6.8 6.7 6.6 6.5 6.4 6.1 5.8 5.7 5.5 5.3 5.0 4.7 4.4 4.2 4.1
4.9 4.8 4.6 4.6 4.4 4.3 4.8 5.1 5.2 5.5 5.9 5.7 5.6 5.6 5.4 5.5 5.2 4.9 4.4 4.3 4.6 5.2 5.4 5.9 6.3 6.2 6.2 6.4 6.4 6.5 6.5 6.6 6.4 6.1 6.0 5.8 5.6 5.4 5.5 5.4 5.2 5.0 4.7 4.4
4.9 4.6 4.3 4.3 4.5 4.9 4.8 4.8 5.2 5.5 5.8 5.7 5.6 5.5 5.4 5.3 4.9 4.7 4.5 4.3 4.7 4.8 5.4 5.8 6.2 6.0 5.9 6.2 6.3 6.3 6.2 6.1 6.1 6.0 5.8 5.6 5.7 5.6 5.3 5.4 5.4 5.5 5.4 5.0
4.7 4.3 4.3 4.8 4.8 4.7 4.6 4.9 5.2 5.5 5.7 5.6 5.5 5.6 5.2 5.1 4.7 4.8 4.6 4.6 4.7 4.9 5.4 5.5 5.7 6.0 6.0 6.0 6.0 6.1 6.1 6.0 5.9 5.9 5.8 5.7 5.8 5.8 5.7 5.7 5.7 5.8 5.8 5.6
4.7 4.5 4.7 4.7 4.6 4.7 4.8 4.9 5.1 5.4 5.6 5.6 5.6 5.5 4.9 4.7 4.7 4.9 4.8 4.9 5.2 5.2 5.1 5.2 5.7 5.8 5.8 5.9 5.9 5.9 5.8 5.8 5.8 5.8 5.8 5.8 5.8 6.0 6.1 6.0 6.0 6.0 6.0 6.0
4.5 4.4 4.5 4.5 4.6 4.6 4.7 4.9 5.1 5.4 5.6 5.6 5.6 5.2 5.0 4.8 4.9 4.9 4.9 4.6 4.9 4.8 4.9 5.0 5.4 5.6 5.7 5.8 5.8 5.8 5.7 5.6 5.6 5.6 5.6 5.7 5.9 6.1 6.4 6.4 6.3 6.1 6.0 6.0
4.4 4.3 4.3 4.5 4.6 4.7 4.8 4.9 5.1 5.4 5.6 5.6 5.3 5.3 5.4 5.1 5.0 4.6 4.4 4.2 4.3 4.5 4.7 4.9 5.0 5.2 5.4 5.5 5.6 5.6 5.5 5.4 5.3 5.3 5.3 5.5 5.7 5.9 6.1 6.2 6.1 6.0 5.8 5.8
Wind_Speed
26 28 30 27 24 25 10 4 4 8 5 6 3 6 4 7 8 6 5 6 4 5 8 6 6 9 9 15 14 9 6 3 4 4 7 10 14 7 4 1 1 5 5 4
26 29 30 27 23 18 2 3 2 5 6 4 4 5 8 2 9 11 6 8 5 10 6 5 11 11 11 13 17 9 8 4 2 1 5 9 7 17 9 6 2 7 4 5
25 29 31 30 25 22 4 3 3 4 4 3 4 2 7 7 7 4 8 5 6 7 6 6 6 14 7 11 17 17 7 8 9 6 6 6 8 21 22 6 5 5 9 11
24 29 31 32 27 20 4 3 1 2 3 5 7 3 6 9 8 5 8 5 12 4 4 6 6 7 11 6 19 8 4 6 15 13 14 20 19 22 22 24 8 5 9 13
23 27 29 31 28 14 4 3 2 4 2 5 6 7 4 7 5 3 5 6 11 4 2 2 4 5 7 5 8 8 5 4 10 11 14 24 21 21 23 16 14 11 13 12
20 24 26 29 29 11 3 3 3 4 7 4 3 4 6 6 3 3 4 4 5 5 3 5 8 6 5 3 4 7 6 1 6 2 5 4 10 14 14 14 15 8 9 7
18 20 23 23 25 16 3 1 2 4 2 2 3 6 8 10 8 4 3 3 2 5 6 5 3 5 6 3 5 7 5 3 1 1 4 6 4 8 10 14 13 12 11 12
15 15 20 21 19 16 4 2 3 3 2 4 5 10 7 7 8 5 3 4 4 8 5 4 4 4 5 5 7 11 6 2 3 4 3 4 3 6 6 7 7 14 12 12
13 12 16 19 19 13 6 3 1 3 5 4 5 4 5 3 4 6 3 5 6 6 1 3 3 3 3 5 11 10 13 7 4 3 4 2 3 8 9 6 3 11 11 11
8 8 11 13 14 14 7 2 6 4 4 3 3 1 2 3 3 2 5 7 7 6 4 3 3 1 1 3 5 5 6 5 4 4 3 1 3 9 6 1 3 10 9 9
7 8 11 11 10 11 6 2 9 4 3 4 1 1 1 3 3 1 5 4 6 5 5 3 1 2 2 3 2 1 1 2 3 4 4 3 6 4 6 4 4 4 4 7
6 7 8 10 11 11 6 2 6 4 3 5 3 4 5 7 6 4 3 3 2 2 2 2 1 3 3 3 1 4 3 4 2 3 2 0 2 4 3 4 4 3 1 4
4 6 9 11 11 10 6 1 3 3 2 3 3 4 4 2 4 4 2 2 2 3 4 3 2 4 2 2 2 1 3 1 2 2 3 3 2 1 1 2 3 4 3 3
2 3 6 8 10 11 9 2 5 2 1 2 4 1 1 2 4 4 4 4 2 2 2 2 2 2 2 1 3 3 4 2 1 2 3 2 3 2 3 3 4 4 5 4
2 2 1 4 5 5 5 5 7 4 3 2 3 1 1 3 2 4 4 3 2 2 2 3 1 0 3 1 2 2 1 4 2 3 5 4 5 4 3 2 4 6 3 7
4 3 3 4 6 3 3 1 2 11 2 3 2 1 2 4 3 2 3 1 1 2 3 2 2 3 3 2 0 5 4 2 5 3 4 5 7 7 3 2 5 5 5 5
5 5 5 6 6 4 2 2 3 10 2 2 3 3 3 4 3 3 1 2 0 3 1 2 2 2 2 2 0 5 5 5 4 4 2 5 1 4 5 5 8 7 6 6
4 2 2 4 4 6 2 3 5 6 2 3 2 3 2 5 2 3 1 2 2 4 2 2 2 2 2 2 6 5 4 3 3 6 5 6 3 4 7 4 3 5 6 6
3 4 6 4 2 2 2 6 4 6 3 3 3 2 3 5 3 2 4 2 2 2 2 1 2 2 1 6 6 4 5 5 4 3 5 5 4 8 7 5 6 4 6 4
5 2 2 2 2 4 3 3 3 4 4 4 2 0 2 3 3 2 3 2 0 1 3 1 2 3 4 5 6 5 5 6 4 2 5 2 5 5 5 6 6 6 6 6
2 2 1 2 3 2 3 3 3 2 4 2 2 2 1 2 2 2 1 2 1 2 3 2 2 2 4 4 5 5 6 6 6 6 7 7 8 9 9 9 7 6 7 7
1 1 1 2 3 3 5 2 3 4 2 3 1 2 3 2 2 2 3 1 3 2 2 3 3 4 5 4 5 5 5 6 7 7 9 8 9 9 8 8 8 7 8 6
2 3 4 3 3 6 5 4 4 4 2 2 2 3 1 3 2 2 3 4 3 1 3 3 4 4 4 6 4 5 5 6 6 7 6 7 8 7 7 9 8 7 6 6
3 3 4 3 4 1 3 4 3 3 2 1 1 1 2 1 3 1 3 3 2 4 3 4 3 5 5 5 3 2 5 6 6 6 6 6 6 7 7 7 7 6 7 6
2 3 1 1 2 0 2 2 1 2 2 2 2 2 2 1 2 1 2 5 3 4 4 3 4 5 4 4 4 6 6 6 5 4 5 6 6 6 6 6 5 5 5 5
3 3 3 0 2 3 2 1 2 1 1 1 2 1 3 2 2 3 3 3 4 4 3 3 3 4 4 5 6 6 5 5 4 4 4 5 6 6 6 6 5 5 5 5
3 2 1 2 2 3 2 3 2 1 2 1 3 3 5 1 3 3 4 5 4 3 4 3 4 5 7 6 6 6 5 5 5 3 4 5 5 6 5 4 3 4 5 5
Wind_Direction
12 13 10 10 11 1 36 67 54 332 13 40 25 29 14 19 343 359 349 2 346 344 341 21 34 0 12 360 354 325 328 318 52 88 154 109 72 351 286 120 358 21 82 102
15 14 11 10 8 14 92 83 118 335 34 60 9 11 11 75 12 6 359 4 21 333 26 16 32 346 332 10 357 348 338 13 173 153 328 23 27 360 320 206 52 347 89 119
19 17 11 9 8 0 84 72 32 338 34 71 52 26 19 6 338 16 2 22 357 347 22 17 356 356 344 8 0 30 58 14 72 109 109 46 34 15 11 68 83 89 61 82
21 18 14 11 7 7 86 59 337 200 351 21 25 58 355 3 2 2 11 357 2 351 11 345 350 340 349 354 5 2 74 78 102 115 95 62 42 37 31 51 62 72 113 70
26 23 18 16 12 18 73 102 94 10 59 5 34 8 339 2 333 331 348 2 338 25 97 178 293 350 358 29 326 357 339 143 137 128 97 77 50 33 32 33 39 78 82 71
28 26 24 23 19 32 73 345 16 101 357 358 47 343 329 345 349 298 2 5 334 326 297 250 257 268 283 294 11 353 355 40 208 224 238 116 38 20 51 55 37 38 44 33
31 32 31 32 33 42 101 236 86 82 6 29 14 336 355 331 346 250 297 355 324 259 290 292 281 274 271 305 23 39 314 304 117 217 21 54 113 45 73 69 46 37 42 28
32 40 32 36 41 51 69 359 70 101 90 333 335 340 355 321 331 338 312 337 272 294 307 25 41 9 9 333 346 359 357 117 36 91 41 116 50 17 343 332 50 26 15 9
36 52 42 39 38 39 57 31 65 92 118 335 289 325 353 330 323 334 312 320 322 351 46 60 61 23 314 339 333 344 6 38 99 71 81 65 233 324 317 308 135 10 10 5
37 40 27 23 29 37 68 357 18 83 99 290 29 36 255 329 335 276 308 339 344 20 21 57 49 356 89 20 14 340 341 354 52 25 100 310 293 311 300 44 347 345 357 356
29 27 24 25 23 22 69 289 21 110 117 277 140 40 61 343 51 68 296 7 6 6 35 58 305 78 247 83 262 184 101 52 6 352 65 2 351 2 91 225 297 318 353 340
33 32 28 33 33 23 36 35 355 53 108 209 209 197 190 172 191 151 317 183 348 244 37 22 31 18 31 159 344 354 27 155 176 136 189 236 309 156 245 182 200 258 222 301
52 53 50 49 40 30 50 109 346 38 71 328 44 232 201 174 177 163 101 321 202 354 180 183 195 80 122 65 284 223 332 123 126 59 304 282 157 89 165 229 228 274 247 243
107 83 59 43 35 40 53 72 340 97 139 111 280 295 191 207 163 172 176 187 19 134 87 99 101 91 48 203 178 128 209 22 258 255 303 7 155 168 238 287 291 304 299 254
203 190 330 340 338 18 63 79 36 35 123 226 278 307 132 43 357 123 82 84 89 56 29 51 313 322 61 333 95 341 184 194 115 236 226 176 248 252 267 289 286 295 292 312
251 246 270 344 352 342 79 5 329 10 84 86 350 311 51 350 339 145 76 124 93 91 117 217 306 251 93 81 207 261 254 223 167 229 200 210 256 274 258 225 282 274 272 279
112 104 79 29 1 61 103 159 264 341 73 71 342 341 11 334 352 18 23 29 101 106 147 41 139 326 80 93 155 251 249 233 250 228 121 335 311 253 255 239 268 288 274 260
120 110 13 1 59 102 33 343 355 5 81 66 71 293 15 5 338 359 356 10 35 5 177 10 56 339 68 20 256 271 261 278 302 257 223 226 261 300 288 279 303 305 286 278
282 303 310 29 43 34 258 331 359 31 92 115 71 82 293 355 360 1 341 57 32 281 51 338 63 320 45 243 240 247 230 188 229 264 247 266 233 270 278 266 288 245 276 270
338 5 41 349 276 313 349 17 20 16 347 27 96 126 310 59 350 345 19 8 151 56 264 337 92 258 253 246 226 225 227 218 186 315 317 302 278 262 272 270 266 257 270 282
44 25 259 248 332 53 34 26 69 332 16 5 252 143 238 4 60 278 83 251 306 52 280 103 317 294 253 264 262 241 243 238 231 224 242 247 249 270 279 283 268 255 261 267
175 178 50 20 34 36 73 332 341 58 233 318 90 270 187 286 92 71 325 88 25 262 300 64 318 255 253 266 267 267 243 254 261 246 256 260 258 258 259 265 268 269 274 271
32 46 42 45 322 30 75 336 319 357 316 307 -0 320 205 353 62 31 52 52 251 341 41 226 228 263 273 255 254 276 261 268 276 284 277 281 289 292 289 297 298 290 278 268
79 81 355 94 332 261 184 189 202 244 134 345 122 300 101 289 24 146 62 251 59 33 23 249 255 249 260 266 251 254 283 285 286 291 293 297 299 302 300 297 297 295 294 306
101 78 294 230 209 31 215 213 10 273 154 67 21 359 80 334 34 58 35 14 318 198 231 234 250 255 255 274 273 267 270 276 284 284 292 296 293 286 285 283 287 289 297 302
78 57 59 296 60 303 334 226 260 220 128 79 72 80 41 309 128 43 228 111 236 255 228 242 267 286 270 273 275 270 267 262 266 276 282 296 303 301 293 297 295 296 294 288
59 298 294 133 128 194 209 169 206 164 78 209 99 56 228 24 27 304 192 205 229 238 280 271 265 279 289 288 282 277 281 287 290 294 294 295 302 314 320 313 347 322 302 296